Location: Silent Lake
(44.9206°N, 78.0708°W)
Time: 00:01:33
(UTC-04:00)

Cosmos 2218 Rocket - Pass Details

Date: 19 April 2018
Orbit: 956 x 1006 km, 82.9° (Epoch: 20 September)

Event Time Altitude Azimuth Distance (km) Brightness Sun altitude
Exits shadow 22:11:54 - 193° (SSW) 2,873 6.2 -20.6°
Reaches altitude 10° 22:12:13 10° 194° (SSW) 2,753 6.1 -20.6°
Maximum altitude 22:18:33 75° 279° (W) 1,040 4.2 -21.4°
Drops below altitude 10° 22:24:59 10° 5° (N) 2,792 6.9 -22.3°
Sets 22:27:33 0° 7° (N) 3,747 7.6 -22.6°
